Dubuque, IA

7:00 AM CDT on September 26, 2017 (GMT -0500)
Dubuque Regional

Weather History for KDBQ - April, 2013

Change the Weather History Date:

Saturday, April 6, 2013

  Actual Average Record
Temperature  
Mean Temperature 49 °F 44 °F  
Max Temperature 63 °F 55 °F 84 °F (1991)
Min Temperature 35 °F 34 °F 10 °F (1982)
Degree Days  
Heating Degree Days 16 21  
Month to date heating degree days 165 130  
Since 1 July heating degree days 6588 6441  
Cooling Degree Days 0 0  
Month to date cooling degree days 0 0  
Year to date cooling degree days 0 0  
Moisture  
Dew Point 36 °F    
Average Humidity 65    
Maximum Humidity 93    
Minimum Humidity 37    
Precipitation  
Precipitation 0.12 in 0.12 in 1.01 in (2010)
Month to date precipitation 0.12 0.64  
Year to date precipitation 6.11 5.66  
Snow  
Snow 0.00 in 0.10 in - ()
Month to date snowfall 0.0 0.7  
Since 1 July snowfall 54.5 40.6  
Snow Depth 0.00 in    
Sea Level Pressure  
Sea Level Pressure 29.74 in    
Wind  
Wind Speed 18 mph (SSW)    
Max Wind Speed 30 mph    
Max Gust Speed 37 mph    
Visibility 9 miles    
Events Rain , Thunderstorm    
T = Trace of Precipitation, MM = Missing Value Source: NWS Daily Summary

Daily Weather History Graph

Daily Weather History Graph

Search for Another Location

Airport or City:

Trip Planner

Search our weather history database for the weather conditions in past years. The results will help you decide how hot, cold, wet, or windy it might be!

Date:

Astronomy

Apr. 06, 2013 Rise Set
Actual Time 6:36 AM CDT 7:34 PM CDT
Civil Twilight 6:07 AM CDT 8:03 PM CDT
Nautical Twilight 5:33 AM CDT 8:37 PM CDT
Astronomical Twilight 4:58 AM CDT 9:13 PM CDT
Moon 4:24 AM CDT (4/6) 3:59 PM CDT (4/6)
Length of Visible Light 13h 55m
Length of Day
12h 58m
Waning Crescent, 15% of the Moon is Illuminated
Apr 6
Waning Crescent
Apr 10
New
Apr 18
First Quarter
Apr 25
Full
May 2
Last Quarter

Hourly Weather History & Observations

Time (CDT) Temp. Windchill Dew Point Humidity Pressure Visibility Wind Dir Wind Speed Gust Speed Precip Events Conditions
12:53 AM 39.0 °F 29.3 °F 19.9 °F 46% 30.02 in 10.0 mi SE 19.6 mph 24.2 mph N/A   Partly Cloudy
1:53 AM 37.9 °F 28.9 °F 15.1 °F 39% 30.01 in 10.0 mi ESE 16.1 mph 23.0 mph N/A   Partly Cloudy
2:53 AM 37.9 °F 28.5 °F 14.0 °F 38% 29.99 in 10.0 mi SE 17.3 mph - N/A   Clear
3:53 AM 37.0 °F 28.1 °F 16.0 °F 42% 29.98 in 10.0 mi SE 15.0 mph - N/A   Clear
4:53 AM 37.0 °F 27.0 °F 18.0 °F 46% 29.95 in 10.0 mi SE 18.4 mph 23.0 mph N/A   Partly Cloudy
5:53 AM 37.0 °F 25.9 °F 19.9 °F 50% 29.91 in 10.0 mi SSE 23.0 mph 32.2 mph N/A   Mostly Cloudy
6:53 AM 36.0 °F 25.3 °F 25.0 °F 64% 29.89 in 10.0 mi SSE 19.6 mph 28.8 mph N/A   Overcast
7:53 AM 36.0 °F 25.0 °F 28.0 °F 73% 29.85 in 10.0 mi SE 20.7 mph 28.8 mph 0.00 in   Overcast
8:53 AM 37.9 °F 27.6 °F 30.0 °F 73% 29.82 in 10.0 mi SSE 20.7 mph 26.5 mph N/A   Overcast
9:53 AM 44.1 °F 35.0 °F 32.0 °F 63% 29.76 in 10.0 mi SSE 24.2 mph 31.1 mph N/A   Scattered Clouds
10:53 AM 50.0 °F - 35.1 °F 57% 29.73 in 10.0 mi South 18.4 mph 25.3 mph N/A   Clear
11:53 AM 59.0 °F - 37.9 °F 46% 29.70 in 10.0 mi South 19.6 mph 26.5 mph N/A   Clear
12:53 PM 61.0 °F - 39.0 °F 44% 29.66 in 10.0 mi SSW 25.3 mph 34.5 mph N/A   Scattered Clouds
1:53 PM 59.0 °F - 39.9 °F 49% 29.63 in 10.0 mi South 15.0 mph - N/A   Overcast
2:53 PM 61.0 °F - 39.9 °F 46% 29.62 in 10.0 mi SW 20.7 mph 32.2 mph N/A   Overcast
3:53 PM 61.0 °F - 41.0 °F 48% 29.59 in 10.0 mi SSW 15.0 mph 21.9 mph N/A   Overcast
4:53 PM 57.9 °F - 46.0 °F 65% 29.58 in 10.0 mi SSW 15.0 mph - 0.00 in Rain Light Rain
5:53 PM 55.0 °F - 48.9 °F 80% 29.60 in 10.0 mi SSW 11.5 mph - 0.01 in Rain Light Rain
6:53 PM 54.0 °F - 48.9 °F 83% 29.59 in 10.0 mi SSW 9.2 mph - 0.00 in   Overcast
7:53 PM 53.1 °F - 48.0 °F 83% 29.58 in 8.0 mi SSW 12.7 mph - 0.00 in Rain Light Rain
8:13 PM 53.6 °F - 48.2 °F 82% 29.57 in 4.0 mi SW 12.7 mph - 0.06 in Rain , Thunderstorm Heavy Rain
8:39 PM 53.6 °F - 50.0 °F 88% 29.58 in 10.0 mi West 15.0 mph - 0.11 in   Overcast
8:46 PM 53.6 °F - 50.0 °F 88% 29.59 in 10.0 mi West 15.0 mph - 0.11 in   Overcast
8:53 PM 52.0 °F - 48.9 °F 89% 29.61 in 10.0 mi WNW 21.9 mph 26.5 mph 0.11 in   Overcast
9:51 PM 48.2 °F - 46.4 °F 93% 29.64 in 7.0 mi West 23.0 mph 28.8 mph N/A   Overcast
9:53 PM 48.0 °F - 46.0 °F 93% 29.66 in 7.0 mi West 20.7 mph 28.8 mph N/A   Overcast
10:53 PM 46.0 °F 39.0 °F 44.1 °F 93% 29.68 in 5.0 mi WNW 17.3 mph - N/A   Overcast
11:31 PM 46.4 °F 39.0 °F 42.8 °F 87% 29.68 in 7.0 mi WNW 19.6 mph 24.2 mph N/A   Overcast
11:53 PM 45.0 °F 38.5 °F 42.1 °F 90% 29.70 in 7.0 mi West 13.8 mph - N/A   Overcast